Weather History for Cagliari, Italy

Change the Weather History Date:

Wednesday, April 10, 2013

  Actual Average Record
Temperature  
Mean Temperature 58 °F -  
Max Temperature 70 °F 67 °F 78 °F (2006)
Min Temperature 46 °F 50 °F 41 °F (2012)
Degree Days  
Heating Degree Days 7    
Growing Degree Days 8 (Base 50)    
Moisture  
Dew Point 50 °F    
Average Humidity 69    
Maximum Humidity 93    
Minimum Humidity 40    
Precipitation  
Precipitation 0.00 in 0.04 in - ()
Sea Level Pressure  
Sea Level Pressure 30.00 in    
Wind  
Wind Speed 6 mph ()    
Max Wind Speed 16 mph    
Max Gust Speed -    
Visibility 7.1 miles    
Events      
Averages and records for this station are not official NWS values.
T = Trace of Precipitation, MM = Missing Value Source: Averaged Metar Reports

Daily Weather History Graph

Daily Weather History Graph

Search for Another Location

Airport:

Trip Planner

Search our weather history database for the weather conditions in past years. The results will help you decide how hot, cold, wet, or windy it might be!

Date:

Astronomy

Apr. 10, 2013 Rise Set
Actual Time 6:54 AM CEST 7:56 PM CEST
Civil Twilight 6:26 AM CEST 8:23 PM CEST
Nautical Twilight 5:54 AM CEST 8:56 PM CEST
Astronomical Twilight 5:20 AM CEST 9:30 PM CEST
Moon 6:41 AM CEST (4/10) 8:15 PM CEST (4/10)
Length of Visible Light 13h 56m
Length of Day
13h 02m
Waxing Crescent, 0% of the Moon is Illuminated
Apr 10
Waxing Crescent
Apr 18
First Quarter
Apr 25
Full
May 2
Last Quarter
May 10
New

Hourly Weather History & Observations

Time (CEST) Temp. Windchill Dew Point Humidity Pressure Visibility Wind Dir Wind Speed Gust Speed Precip Events Conditions
12:15 AM 57.2 °F - 53.6 °F 88% 29.98 in - WNW 8.1 mph - N/A   Clear
12:45 AM 55.4 °F - 50.0 °F 82% 29.98 in - NNW 5.8 mph - N/A   Clear
12:55 AM 55.4 °F - 50.0 °F 82% 29.98 in - NNW 5.8 mph - N/A   Clear
1:15 AM 55.4 °F - 50.0 °F 82% 29.98 in - NW 2.3 mph - N/A   Clear
1:45 AM 53.6 °F - 48.2 °F 82% 29.98 in - NE 5.8 mph - N/A   Clear
1:55 AM 53.6 °F - 48.2 °F 82% 29.98 in - NE 5.8 mph - N/A   Clear
2:00 AM 53 °F - 48 °F 78% 29.99 in 12 mi NE 5.8 mph - -  
2:15 AM 51.8 °F - 48.2 °F 88% 29.98 in - ENE 2.3 mph - N/A   Clear
2:45 AM 51.8 °F - 48.2 °F 88% 29.98 in - ENE 1.2 mph - N/A   Clear
2:55 AM 51.8 °F - 48.2 °F 88% 29.98 in - ENE 1.2 mph - N/A   Clear
3:15 AM 51.8 °F - 46.4 °F 82% 29.98 in - NW 3.5 mph - N/A   Clear
3:45 AM 50.0 °F - 46.4 °F 87% 29.95 in - NNW 1.2 mph - N/A   Clear
3:55 AM 50.0 °F - 46.4 °F 87% 29.95 in - NNW 1.2 mph - N/A   Clear
4:15 AM 50.0 °F - 46.4 °F 87% 29.95 in - NNW 1.2 mph - N/A   Clear
5:00 AM 50 °F - 47 °F 84% 29.97 in 9 mi East 1.2 mph - -  
5:45 AM 48.2 °F - 44.6 °F 87% 29.95 in - North 2.3 mph - N/A   Clear
5:55 AM 48.2 °F - 44.6 °F 87% 29.95 in - North 2.3 mph - N/A   Clear
6:15 AM 48.2 °F - 44.6 °F 87% 29.98 in - Calm Calm - N/A   Clear
6:45 AM 48.2 °F - 44.6 °F 87% 29.98 in - NW 5.8 mph - N/A   Clear
6:55 AM 48.2 °F - 44.6 °F 87% 29.98 in - NW 5.8 mph - N/A   Clear
7:15 AM 48.2 °F - 44.6 °F 87% 29.98 in 6.2 mi NW 8.1 mph - N/A   Partly Cloudy
7:45 AM 46.4 °F 42.4 °F 44.6 °F 93% 29.98 in 6.2 mi NW 8.1 mph - N/A   Partly Cloudy
7:55 AM 46.4 °F 42.4 °F 44.6 °F 93% 29.98 in 6.2 mi NW 8.1 mph - N/A   Partly Cloudy
8:00 AM 47 °F - 44 °F 85% 30.00 in 9 mi NW 8.1 mph - -   Scattered Clouds
8:15 AM 48.2 °F - 44.6 °F 87% 30.01 in - NW 3.5 mph - N/A   Clear
8:45 AM 50.0 °F - 46.4 °F 87% 30.01 in - NW 4.6 mph - N/A   Clear
9:15 AM 55.4 °F - 46.4 °F 72% 30.01 in - NW 5.8 mph - N/A   Clear
9:45 AM 59.0 °F - 50.0 °F 72% 30.01 in - WNW 6.9 mph - N/A   Clear
9:55 AM 59.0 °F - 50.0 °F 72% 30.01 in - WNW 6.9 mph - N/A   Clear
10:45 AM 62.6 °F - 51.8 °F 68% 30.01 in - NNW 5.8 mph - N/A   Clear
10:55 AM 62.6 °F - 51.8 °F 68% 30.01 in - NNW 5.8 mph - N/A   Clear
11:00 AM 63 °F - 52 °F 59% 30.03 in 9 mi NNW 5.8 mph - -  
11:15 AM 64.4 °F - 51.8 °F 64% 30.01 in - NNW 6.9 mph - N/A   Clear
11:45 AM 66.2 °F - 51.8 °F 60% 30.01 in - NNW 6.9 mph - N/A   Clear
11:55 AM 66.2 °F - 51.8 °F 60% 30.01 in - NNW 6.9 mph - N/A   Clear
12:15 PM 68.0 °F - 48.2 °F 49% 30.01 in - NNW 9.2 mph - N/A   Clear
12:45 PM 68.0 °F - 48.2 °F 49% 30.01 in 6.2 mi NW 8.1 mph - N/A   Partly Cloudy
12:55 PM 68.0 °F - 48.2 °F 49% 30.01 in 6.2 mi NW 8.1 mph - N/A   Partly Cloudy
1:15 PM 69.8 °F - 50.0 °F 49% 30.01 in 6.2 mi WNW 6.9 mph - N/A   Partly Cloudy
1:45 PM 71.6 °F - 51.8 °F 50% 30.01 in 6.2 mi West 4.6 mph - N/A   Partly Cloudy
1:55 PM 71.6 °F - 51.8 °F 50% 30.01 in 6.2 mi West 4.6 mph - N/A   Partly Cloudy
2:00 PM 71 °F - 52 °F 40% 30.01 in 9 mi West 4.6 mph - -   Scattered Clouds
2:15 PM 69.8 °F - 50.0 °F 49% 30.01 in 6.2 mi SSE 5.8 mph - N/A   Partly Cloudy
2:45 PM 68.0 °F - 53.6 °F 60% 30.01 in 6.2 mi SSE 6.9 mph - N/A   Partly Cloudy
2:55 PM 68.0 °F - 53.6 °F 60% 30.01 in 6.2 mi SSE 6.9 mph - N/A   Partly Cloudy
3:15 PM 69.8 °F - 55.4 °F 60% 29.98 in 6.2 mi SSW 3.5 mph - N/A   Partly Cloudy
3:45 PM 71.6 °F - 53.6 °F 53% 29.98 in 6.2 mi WNW 11.5 mph - N/A   Partly Cloudy
3:55 PM 71.6 °F - 53.6 °F 53% 29.98 in 6.2 mi WNW 11.5 mph - N/A   Partly Cloudy
4:15 PM 71.6 °F - 53.6 °F 53% 29.98 in 6.2 mi WNW 16.1 mph - N/A   Partly Cloudy
4:45 PM 71.6 °F - 51.8 °F 50% 29.98 in 6.2 mi West 12.7 mph - N/A   Partly Cloudy
4:55 PM 71.6 °F - 51.8 °F 50% 29.98 in 6.2 mi West 12.7 mph - N/A   Partly Cloudy
5:00 PM 71 °F - 52 °F 40% 29.99 in 9 mi West 12.7 mph - -   Scattered Clouds
5:15 PM 69.8 °F - 53.6 °F 56% 29.98 in 6.2 mi West 13.8 mph - N/A   Partly Cloudy
5:45 PM 68.0 °F - 51.8 °F 56% 29.98 in 6.2 mi West 9.2 mph - N/A   Mostly Cloudy
5:55 PM 68.0 °F - 51.8 °F 56% 29.98 in 6.2 mi West 9.2 mph - N/A   Mostly Cloudy
6:15 PM 68.0 °F - 51.8 °F 56% 29.98 in 6.2 mi West 9.2 mph - N/A   Partly Cloudy
6:45 PM 68.0 °F - 51.8 °F 56% 29.98 in - WNW 9.2 mph - N/A   Clear
6:55 PM 68.0 °F - 51.8 °F 56% 29.98 in - WNW 9.2 mph - N/A   Clear
7:15 PM 66.2 °F - 50.0 °F 56% 30.01 in - WNW 5.8 mph - N/A   Clear
7:45 PM 64.4 °F - 50.0 °F 59% 30.01 in - WNW 6.9 mph - N/A   Clear
7:55 PM 64.4 °F - 50.0 °F 59% 30.01 in - WNW 6.9 mph - N/A   Clear
8:00 PM 65 °F - 51 °F 49% 30.01 in 9 mi WNW 6.9 mph - -   Scattered Clouds
8:15 PM 62.6 °F - 50.0 °F 63% 30.01 in - WNW 6.9 mph - N/A   Clear
8:45 PM 62.6 °F - 50.0 °F 63% 30.01 in - NNW 6.9 mph - N/A   Clear
8:55 PM 62.6 °F - 50.0 °F 63% 30.01 in - NNW 6.9 mph - N/A   Clear
9:15 PM 60.8 °F - 50.0 °F 68% 30.01 in - NNW 5.8 mph - N/A   Clear
9:45 PM 59.0 °F - 50.0 °F 72% 30.01 in - NW 6.9 mph - N/A   Clear
9:55 PM 59.0 °F - 50.0 °F 72% 30.01 in - NW 6.9 mph - N/A   Clear
10:15 PM 59.0 °F - 50.0 °F 72% 30.04 in - NW 5.8 mph - N/A   Clear
10:45 PM 57.2 °F - 50.0 °F 77% 30.04 in - NW 5.8 mph - N/A   Clear
10:55 PM 57.2 °F - 50.0 °F 77% 30.04 in - NW 5.8 mph - N/A   Clear
11:00 PM 57 °F - 50 °F 71% 30.05 in 9 mi NW 5.8 mph - -   Clear
11:15 PM 57.2 °F - 50.0 °F 77% 30.04 in - NW 5.8 mph - N/A   Clear
11:45 PM 57.2 °F - 51.8 °F 82% 30.04 in - NW 11.5 mph - N/A   Clear
11:55 PM 57.2 °F - 51.8 °F 82% 30.04 in - NW 11.5 mph - N/A   Clear